Flag for Canada Weather past 2 weeks in Regina, Saskatchewan, Canada

Now
55 °F

Partly cloudy.


Feels Like: 52 °F
Forecast: 40 / 57 °F
Wind: 14 mph from Southeast

Location: Regina Weather Station

Current Time: Oct 21, 2014 at 9:14:30 PM

Latest Report: Oct 21, 2014 at 8:00 PM


Visibility: 15 mi

Pressure: 29.61 "Hg

Humidity: 67%

Dew point: 45 °F

Location of ReginaLocation

Historic Weather in Regina — Graph

°F

Regina temperature yesterday

Maximum temperature yesterday: 75 °F (at 3:00 PM)
Minimum temperature yesterday: 37 °F (at 2:00 AM)
Average temperature yesterday: 52 °F

Past Weeks' High & Low Weather Summary

 TemperatureHumidityPressure
High75 °F (Oct 20, 3:00 PM)100% (Oct 9, 2:00 AM)30.35 "Hg (Oct 9, 2:00 AM)
Low25 °F (Oct 9, 2:00 AM)30% (Oct 10, 4:00 PM)29.53 "Hg (Oct 16, 12:00 AM)
Average46 °F71%29.93 "Hg
* Reported Oct 6 8:00 PM — Oct 21 8:00 PM, Regina, Weather by CustomWeather, © 2014

Note: Actual official high and low records may vary slightly from our data, if they occured in-between our weather recording intervals... More about our weather records

Advertising

Regina weather history for previous 24 hours

 ConditionsComfort  
Time TempWeatherWind HumidityBarometerVisibility
8:00 PM
Oct 21
55 °FPartly cloudy.14 mph67%29.61 "Hg15 mi
7:00 PM59 °FPartly cloudy.14 mph59%29.61 "Hg15 mi
6:00 PM61 °FMostly cloudy.10 mph59%29.60 "Hg15 mi
5:00 PM64 °FPartly sunny.12 mph52%29.58 "Hg15 mi
4:00 PM70 °FScattered clouds.13 mph43%29.58 "Hg15 mi
3:00 PM72 °FPassing clouds.15 mph41%29.58 "Hg15 mi
2:00 PM70 °FPassing clouds.16 mph43%29.60 "Hg15 mi
1:00 PM66 °FPassing clouds.14 mph49%29.63 "Hg15 mi
12:00 PM61 °FPassing clouds.16 mph55%29.67 "Hg15 mi
11:00 AM55 °FPassing clouds.17 mph67%29.69 "Hg15 mi
10:00 AM50 °FSunny.14 mph76%29.71 "Hg15 mi
9:00 AM45 °FSunny.13 mph87%29.73 "Hg15 mi
8:00 AM43 °FSunny.15 mph87%29.73 "Hg15 mi
7:00 AM41 °FClear.14 mph93%29.73 "Hg15 mi
6:00 AM43 °FClear.15 mph87%29.73 "Hg15 mi
5:00 AM45 °FClear.14 mph87%29.73 "Hg15 mi
4:00 AM45 °FClear.13 mph87%29.73 "Hg15 mi
3:00 AM45 °FClear.13 mph87%29.74 "Hg15 mi
2:00 AM45 °FClear.15 mph87%29.74 "Hg15 mi
1:00 AM46 °FClear.14 mph82%29.75 "Hg15 mi
12:00 AM48 °FClear.13 mph76%29.76 "Hg15 mi
11:00 PM
Oct 20
48 °FClear.12 mph76%29.78 "Hg15 mi
10:00 PM50 °FClear.13 mph76%29.79 "Hg15 mi
9:00 PM52 °FClear.14 mph67%29.80 "Hg15 mi
Weather by CustomWeather, © 2014

See weather overviewHow to use our weather pages